sat.trackr.live / text

‹ back to catalog

STARLINK-35849

NORAD 66348 · 2025-254A

PAYLOAD ACTIVE UNKNOWN

§ Identity

Operator
Country
US
Launch date
2025-11-06
Launch site
AFWTR
Launch vehicle
Mass (kg)
RCS (m²)

Purposes: comms

External: N2YO · Heavens-Above · Gunter

§ Orbital elements

Epoch: 2026-05-24T23:44:04.503264Z

Period
94.10 min
Inclination
53.1583°
Eccentricity
0.0001309
Mean motion
15.30206693 rev/d
Perigee alt
474.3 km
Apogee alt
476.1 km
Semi-major
6,853.3 km
B*
3.9283e-4
RAAN
238.3198°
Arg perigee
91.4874°
Mean anomaly
268.6276°
Rev number
3,181

§ Raw data

STARLINK-358491 66348U 25254A   26144.98894101  .00011295  00000+0  39283-3 0  99972 66348  53.1583 238.3198 0001309  91.4874 268.6276 15.30206693 31819

JSON: /api/v1/satellites/66348 · /tle

For live sub-satellite position, see the globe view (requires WebGL).

§ Visibility from observer

Set your observer location to see the next 7 days of passes ≥ 10°. The values pass through the URL so the page stays shareable.

No JS? Fill the form by hand. The geolocation button needs JavaScript.